| time (UTC) | temp F | wind direction | speed knots | gust knots | rain 1hr in | rain 24hr in | rain mn in | humidity % | barometer mb |
| 20260506201419 | 65 | 99 | 1.7 | 7.0 | 0.00 | 0.00 | 0.00 | 57 | 1005.9 |
| 20260506200412 | 66 | 105 | 2.6 | 6.1 | 0.00 | 0.00 | 0.00 | 54 | 1005.4 |
| 20260506195406 | 67 | 77 | 3.5 | 7.0 | 0.00 | 0.00 | 0.00 | 54 | 1005.5 |
| 20260506194359 | 67 | 113 | 1.7 | 6.1 | 0.00 | 0.00 | 0.00 | 53 | 1005.4 |
| 20260506193352 | 68 | 110 | 1.7 | 6.1 | 0.00 | 0.00 | 0.00 | 52 | 1005.4 |
| 20260506192345 | 68 | 107 | 2.6 | 9.6 | 0.00 | 0.00 | 0.00 | 51 | 1004.7 |
| 20260506191336 | 68 | 121 | 1.7 | 7.0 | 0.00 | 0.00 | 0.00 | 51 | 1004.9 |
| 20260506190329 | 69 | 130 | 1.7 | 7.8 | 0.00 | 0.00 | 0.00 | 50 | 1004.7 |
| 20260506185322 | 69 | 143 | 1.7 | 7.8 | 0.00 | 0.00 | 0.00 | 49 | 1004.7 |
| 20260506184315 | 69 | 141 | 1.7 | 7.0 | 0.00 | 0.00 | 0.00 | 49 | 1004.9 |
| 20260506183308 | 70 | 122 | 1.7 | 7.0 | 0.00 | 0.00 | 0.00 | 49 | 1004.4 |
| 20260506182259 | 70 | 142 | 1.7 | 8.7 | 0.00 | 0.00 | 0.00 | 48 | 1004.2 |
| 20260506181252 | 70 | 124 | 2.6 | 6.1 | 0.00 | 0.00 | 0.00 | 48 | 1004.2 |
| 20260506180247 | 71 | 122 | 1.7 | 7.0 | 0.00 | 0.00 | 0.00 | 47 | 1004.0 |
| 20260506175240 | 72 | 141 | 2.6 | 7.0 | 0.00 | 0.00 | 0.00 | 47 | 1003.9 |
| 20260506174232 | 72 | 137 | 1.7 | 7.0 | 0.00 | 0.00 | 0.00 | 46 | 1003.7 |
| 20260506173225 | 72 | 124 | 1.7 | 5.2 | 0.00 | 0.00 | 0.00 | 46 | 1004.0 |
| 20260506172217 | 73 | 121 | 1.7 | 7.0 | 0.00 | 0.00 | 0.00 | 47 | 1004.1 |
| 20260506171210 | 73 | 123 | 2.6 | 8.7 | 0.00 | 0.00 | 0.00 | 46 | 1004.1 |
| 20260506170203 | 74 | 134 | 2.6 | 8.7 | 0.00 | 0.00 | 0.00 | 44 | 1004.1 |
| 20260506165155 | 74 | 133 | 2.6 | 9.6 | 0.00 | 0.00 | 0.00 | 43 | 1004.2 |
| 20260506164147 | 75 | 159 | 2.6 | 8.7 | 0.00 | 0.00 | 0.00 | 43 | 1004.1 |
| 20260506163140 | 75 | 162 | 2.6 | 8.7 | 0.00 | 0.00 | 0.00 | 42 | 1004.4 |
| 20260506162134 | 76 | 145 | 2.6 | 9.6 | 0.00 | 0.00 | 0.00 | 42 | 1004.3 |
| 20260506161128 | 76 | 149 | 2.6 | 9.6 | 0.00 | 0.00 | 0.00 | 41 | 1004.5 |
| 20260506160119 | 77 | 149 | 2.6 | 7.8 | 0.00 | 0.00 | 0.00 | 40 | 1004.4 |
| 20260506155112 | 78 | 121 | 2.6 | 13.0 | 0.00 | 0.00 | 0.00 | 39 | 1004.5 |
| 20260506154105 | 78 | 144 | 2.6 | 9.6 | 0.00 | 0.00 | 0.00 | 37 | 1004.2 |
| 20260506153058 | 79 | 121 | 2.6 | 7.0 | 0.00 | 0.00 | 0.00 | 37 | 1004.3 |
| 20260506152058 | 79 | 151 | 3.5 | 9.6 | 0.00 | 0.00 | 0.00 | 36 | 1004.4 |
| 20260506151051 | 79 | 110 | 4.3 | 9.6 | 0.00 | 0.00 | 0.00 | 36 | 1004.5 |
| 20260506150044 | 79 | 111 | 3.5 | 12.2 | 0.00 | 0.00 | 0.00 | 38 | 1004.6 |
| 20260506145038 | 79 | 91 | 5.2 | 12.2 | 0.00 | 0.00 | 0.00 | 38 | 1004.6 |
| 20260506144031 | 79 | 107 | 4.3 | 13.0 | 0.00 | 0.00 | 0.00 | 38 | 1004.8 |
| 20260506143024 | 78 | 117 | 4.3 | 12.2 | 0.00 | 0.00 | 0.00 | 38 | 1004.9 |
| 20260506142016 | 78 | 90 | 5.2 | 13.9 | 0.00 | 0.00 | 0.00 | 38 | 1005.0 |
| 20260506141008 | 78 | 113 | 5.2 | 13.9 | 0.00 | 0.00 | 0.00 | 37 | 1005.4 |
| 20260506140001 | 79 | 103 | 5.2 | 13.0 | 0.00 | 0.00 | 0.00 | 36 | 1005.2 |
| 20260506134954 | 79 | 112 | 5.2 | 14.8 | 0.00 | 0.00 | 0.00 | 37 | 1005.4 |
| 20260506133947 | 78 | 101 | 6.1 | 14.8 | 0.00 | 0.00 | 0.00 | 37 | 1005.5 |
| 20260506132939 | 77 | 94 | 5.2 | 13.9 | 0.00 | 0.00 | 0.00 | 39 | 1005.5 |
| 20260506131932 | 77 | 93 | 6.1 | 15.6 | 0.00 | 0.00 | 0.00 | 39 | 1006.1 |
| 20260506130924 | 77 | 91 | 6.1 | 14.8 | 0.00 | 0.00 | 0.00 | 40 | 1006.4 |
| 20260506125917 | 76 | 89 | 5.2 | 13.0 | 0.00 | 0.00 | 0.00 | 40 | 1006.5 |
| 20260506124911 | 75 | 103 | 5.2 | 13.0 | 0.00 | 0.00 | 0.00 | 41 | 1006.6 |
| 20260506123904 | 78 | 107 | 5.2 | 13.9 | 0.00 | 0.00 | 0.00 | 40 | 1006.6 |
| 20260506122856 | 78 | 113 | 4.3 | 12.2 | 0.00 | 0.00 | 0.00 | 39 | 1007.1 |
| 20260506121848 | 78 | 108 | 4.3 | 13.0 | 0.00 | 0.00 | 0.00 | 38 | 1006.9 |
| 20260506120842 | 77 | 100 | 5.2 | 14.8 | 0.00 | 0.00 | 0.00 | 41 | 1007.0 |
| 20260506115834 | 76 | 111 | 5.2 | 12.2 | 0.00 | 0.00 | 0.00 | 41 | 1007.2 |
| 20260506114827 | 76 | 92 | 6.1 | 14.8 | 0.00 | 0.00 | 0.00 | 40 | 1007.3 |
| 20260506113827 | 76 | 105 | 5.2 | 13.0 | 0.00 | 0.00 | 0.00 | 41 | 1007.3 |
| 20260506112823 | 75 | 84 | 5.2 | 11.3 | 0.00 | 0.00 | 0.00 | 43 | 1007.6 |
| 20260506111815 | 77 | 137 | 4.3 | 12.2 | 0.00 | 0.00 | 0.00 | 42 | 1007.6 |
| 20260506110808 | 76 | 122 | 3.5 | 11.3 | 0.00 | 0.00 | 0.00 | 44 | 1007.7 |
| 20260506105800 | 75 | 87 | 6.1 | 13.9 | 0.00 | 0.00 | 0.00 | 45 | 1007.8 |
| 20260506104753 | 75 | 112 | 4.3 | 12.2 | 0.00 | 0.00 | 0.00 | 44 | 1008.0 |
| 20260506103745 | 75 | 104 | 4.3 | 15.6 | 0.00 | 0.00 | 0.00 | 42 | 1008.0 |
| 20260506102738 | 75 | 96 | 5.2 | 12.2 | 0.00 | 0.00 | 0.00 | 44 | 1007.9 |
| 20260506101738 | 75 | 87 | 5.2 | 13.0 | 0.00 | 0.00 | 0.00 | 45 | 1008.3 |
| 20260506100732 | 75 | 88 | 5.2 | 13.9 | 0.00 | 0.00 | 0.00 | 43 | 1008.5 |
| 20260506095725 | 75 | 110 | 3.5 | 13.0 | 0.00 | 0.00 | 0.00 | 44 | 1008.6 |
| 20260506094717 | 74 | 97 | 4.3 | 8.7 | 0.00 | 0.00 | 0.00 | 45 | 1008.6 |
| 20260506093712 | 74 | 91 | 2.6 | 7.0 | 0.00 | 0.00 | 0.00 | 46 | 1008.8 |
| 20260506092704 | 73 | 96 | 3.5 | 9.6 | 0.00 | 0.00 | 0.00 | 48 | 1009.0 |
| 20260506091656 | 74 | 127 | 2.6 | 7.8 | 0.00 | 0.00 | 0.00 | 44 | 1008.9 |
| 20260506090649 | 74 | 116 | 1.7 | 6.1 | 0.00 | 0.00 | 0.00 | 44 | 1008.8 |
| 20260506085641 | 74 | 130 | 1.7 | 5.2 | 0.00 | 0.00 | 0.00 | 42 | 1008.8 |
| 20260506084634 | 73 | 143 | 1.7 | 6.1 | 0.00 | 0.00 | 0.00 | 44 | 1009.1 |
| 20260506083627 | 73 | 149 | 0.9 | 3.5 | 0.00 | 0.00 | 0.00 | 43 | 1009.1 |
| 20260506082619 | 72 | 166 | 0.9 | 2.6 | 0.00 | 0.00 | 0.00 | 46 | 1009.1 |
| 20260506081612 | 70 | 219 | 1.7 | 5.2 | 0.00 | 0.00 | 0.00 | 48 | 1009.2 |
| 20260506080604 | 69 | 239 | 3.5 | 7.0 | 0.00 | 0.00 | 0.00 | 50 | 1009.3 |
| 20260506072536 | 68 | 240 | 5.2 | 8.7 | 0.00 | 0.00 | 0.00 | 56 | 1009.7 |
| 20260506071528 | 68 | 230 | 3.5 | 7.8 | 0.00 | 0.00 | 0.00 | 55 | 1009.8 |
| 20260506070521 | 67 | 235 | 3.5 | 7.0 | 0.00 | 0.00 | 0.00 | 56 | 1009.9 |
| 20260506062452 | 64 | 217 | 1.7 | 7.0 | 0.00 | 0.00 | 0.00 | 66 | 1009.7 |
| 20260506061445 | 64 | 211 | 0.9 | 2.6 | 0.00 | 0.00 | 0.00 | 67 | 1009.9 |
| 20260506060436 | 64 | 209 | 0.9 | 1.7 | 0.00 | 0.00 | 0.00 | 68 | 1009.8 |
| 20260506051401 | 61 | 241 | 3.5 | 7.0 | 0.00 | 0.00 | 0.00 | 74 | 1009.8 |
| 20260506050355 | 60 | 246 | 4.3 | 7.8 | 0.00 | 0.00 | 0.00 | 76 | 1009.7 |
| 20260506044340 | 58 | 243 | 4.3 | 7.8 | 0.00 | 0.00 | 0.00 | 79 | 1009.4 |
| 20260506043333 | 59 | 240 | 5.2 | 8.7 | 0.00 | 0.00 | 0.00 | 78 | 1009.4 |
| 20260506042325 | 58 | 239 | 3.5 | 6.1 | 0.00 | 0.00 | 0.00 | 80 | 1009.4 |
| 20260506041317 | 56 | 222 | 0.9 | 3.5 | 0.00 | 0.00 | 0.00 | 83 | 1009.4 |
| 20260506040312 | 56 | 236 | 2.6 | 6.1 | 0.00 | 0.00 | 0.00 | 82 | 1009.2 |
| 20260506035306 | 56 | 236 | 2.6 | 6.1 | 0.00 | 0.00 | 0.00 | 83 | 1008.9 |
| 20260506034256 | 55 | 183 | 0.0 | 2.6 | 0.00 | 0.00 | 0.00 | 83 | 1009.1 |
| 20260506033249 | 56 | 153 | 0.0 | 1.7 | 0.00 | 0.00 | 0.00 | 80 | 1009.1 |
| 20260506032242 | 55 | 183 | 0.0 | 1.7 | 0.00 | 0.00 | 0.00 | 82 | 1008.9 |
| 20260506031235 | 55 | 198 | 0.0 | 0.0 | 0.00 | 0.00 | 0.00 | 80 | 1009.1 |
| 20260506030227 | 57 | 205 | 0.0 | 0.9 | 0.00 | 0.00 | 0.00 | 77 | 1009.1 |
| 20260506025219 | 57 | 210 | 0.0 | 2.6 | 0.00 | 0.00 | 0.00 | 77 | 1009.1 |
| 20260506024212 | 57 | 221 | 0.9 | 2.6 | 0.00 | 0.00 | 0.00 | 75 | 1009.1 |
| 20260506023205 | 57 | 222 | 0.9 | 2.6 | 0.00 | 0.00 | 0.00 | 77 | 1009.0 |
| 20260506022158 | 56 | 219 | 0.9 | 1.7 | 0.00 | 0.00 | 0.00 | 77 | 1009.0 |
| 20260506021152 | 59 | 227 | 1.7 | 3.5 | 0.00 | 0.00 | 0.00 | 72 | 1008.8 |
| 20260506020144 | 61 | 241 | 2.6 | 5.2 | 0.00 | 0.00 | 0.00 | 69 | 1009.1 |
| 20260506015137 | 62 | 244 | 3.5 | 5.2 | 0.00 | 0.00 | 0.00 | 67 | 1008.8 |
| 20260506014129 | 62 | 244 | 3.5 | 5.2 | 0.00 | 0.00 | 0.00 | 67 | 1008.9 |
| 20260506013122 | 62 | 243 | 3.5 | 7.8 | 0.00 | 0.00 | 0.00 | 66 | 1008.7 |
| 20260506012115 | 62 | 250 | 5.2 | 7.8 | 0.00 | 0.00 | 0.00 | 64 | 1008.7 |
| 20260506011108 | 62 | 243 | 4.3 | 7.0 | 0.00 | 0.00 | 0.00 | 64 | 1008.8 |
| 20260506010100 | 62 | 241 | 3.5 | 7.0 | 0.00 | 0.00 | 0.00 | 64 | 1008.6 |
| 20260506005052 | 62 | 241 | 3.5 | 7.0 | 0.00 | 0.00 | 0.00 | 64 | 1008.6 |
| 20260506004045 | 61 | 239 | 2.6 | 5.2 | 0.00 | 0.00 | 0.00 | 65 | 1008.3 |
| 20260506003038 | 56 | 206 | 0.0 | 0.0 | 0.00 | 0.00 | 0.00 | 75 | 1008.1 |
| 20260506002032 | 57 | 191 | 0.0 | 0.0 | 0.00 | 0.00 | 0.00 | 73 | 1007.9 |
| 20260506001024 | 57 | 207 | 0.0 | 0.9 | 0.00 | 0.00 | 0.00 | 73 | 1007.6 |
| 20260506000017 | 58 | 208 | 0.0 | 0.9 | 0.00 | 0.00 | 0.00 | 70 | 1007.6 |
| 20260505235010 | 58 | 216 | 0.0 | 1.7 | 0.00 | 0.00 | 0.00 | 72 | 1007.7 |
| 20260505234002 | 57 | 205 | 0.0 | 0.0 | 0.00 | 0.00 | 0.00 | 73 | 1007.6 |
| 20260505232955 | 57 | 183 | 0.0 | 0.0 | 0.00 | 0.00 | 0.00 | 71 | 1007.3 |
| 20260505231947 | 56 | 200 | 0.0 | 0.9 | 0.00 | 0.00 | 0.00 | 73 | 1007.4 |
| 20260505230940 | 56 | 190 | 0.0 | 0.9 | 0.00 | 0.00 | 0.00 | 73 | 1007.3 |
| 20260505225933 | 55 | 196 | 0.0 | 0.0 | 0.00 | 0.00 | 0.00 | 75 | 1007.2 |
| 20260505224925 | 55 | 211 | 0.0 | 1.7 | 0.00 | 0.00 | 0.00 | 74 | 1007.1 |
| 20260505223918 | 55 | 206 | 0.0 | 1.7 | 0.00 | 0.00 | 0.00 | 74 | 1006.8 |
| 20260505222912 | 55 | 215 | 0.0 | 1.7 | 0.00 | 0.00 | 0.00 | 73 | 1006.8 |
| 20260505221905 | 55 | 217 | 0.0 | 0.9 | 0.00 | 0.00 | 0.00 | 72 | 1006.6 |
| 20260505220858 | 55 | 207 | 0.0 | 0.9 | 0.00 | 0.00 | 0.00 | 72 | 1006.5 |
| 20260505215850 | 57 | 205 | 0.0 | 0.9 | 0.00 | 0.00 | 0.00 | 68 | 1006.2 |
| 20260505214843 | 58 | 204 | 0.0 | 0.9 | 0.00 | 0.00 | 0.00 | 64 | 1006.2 |
| 20260505213835 | 60 | 186 | 0.0 | 1.7 | 0.00 | 0.00 | 0.00 | 61 | 1005.9 |
| 20260505212828 | 61 | 108 | 1.7 | 6.1 | 0.00 | 0.00 | 0.00 | 59 | 1006.1 |
| 20260505211821 | 61 | 94 | 1.7 | 6.1 | 0.00 | 0.00 | 0.00 | 59 | 1005.8 |
| 20260505210813 | 60 | 142 | 0.9 | 2.6 | 0.00 | 0.00 | 0.00 | 61 | 1005.9 |
| 20260505205806 | 60 | 221 | 0.0 | 1.7 | 0.00 | 0.00 | 0.00 | 60 | 1005.5 |
| 20260505204800 | 61 | 204 | 0.0 | 1.7 | 0.00 | 0.00 | 0.00 | 59 | 1005.4 |
| 20260505203752 | 62 | 148 | 0.9 | 2.6 | 0.00 | 0.00 | 0.00 | 57 | 1005.5 |
| 20260505202745 | 62 | 136 | 0.9 | 3.5 | 0.00 | 0.00 | 0.00 | 57 | 1005.5 |